time_stamp(utc),avg(mph),gust(mph),direction(deg),12m_air_temp(f),sonic_u(cm/s),sonic_v(cm/s),sonic_w(cm/s),pressure,2m_air_temp(f),pyranometer(W/m^2)
"2018-09-21 00:02:07+00",11.1,12.1,,67.8,479,-123,3,1023.31,67.4,0
"2018-09-21 00:07:07+00",9.9,10.9,,67.8,445,-48,2,1023.34,67.4,0
"2018-09-21 00:12:07+00",12.5,13.5,,67.8,558,-11,21,1023.39,67.5,0
"2018-09-21 00:17:07+00",10.6,12.6,,67.8,459,-106,-2,1023.46,67.4,0
"2018-09-21 00:22:07+00",9.7,11.7,,67.8,431,-16,24,1023.34,67.5,0
"2018-09-21 00:27:07+00",11.0,13.0,,67.8,479,-78,12,1023.34,67.4,0
"2018-09-21 00:32:07+00",11.4,12.4,,67.9,511,-59,12,1023.28,67.4,0
"2018-09-21 00:37:07+00",12.1,13.1,,67.9,508,-164,0,1023.39,67.3,0
"2018-09-21 00:42:07+00",11.3,15.3,,67.9,508,-30,20,1023.37,67.4,0
"2018-09-21 00:47:07+00",11.5,13.5,,67.8,497,-124,1,1023.53,67.3,0
"2018-09-21 00:52:07+00",11.3,13.3,,67.8,496,-64,8,1023.58,67.3,0
"2018-09-21 00:57:07+00",12.8,13.8,,67.9,547,-138,-2,1023.6,67.3,0
"2018-09-21 01:02:07+00",10.3,13.3,,67.9,456,9,32,1023.69,67.3,0
"2018-09-21 01:07:07+00",11.3,12.3,,67.9,466,-192,2,1023.63,67.2,0
"2018-09-21 01:12:07+00",13.1,14.1,,67.9,554,-164,-5,1023.6,67.2,0
"2018-09-21 01:17:07+00",10.9,12.9,,68,469,-135,-2,1023.76,67.2,0
"2018-09-21 01:22:07+00",10.1,11.1,,67.9,453,-56,8,1023.85,67.2,0
"2018-09-21 01:27:07+00",9.2,11.2,,67.9,359,-176,4,1023.78,67.1,0
"2018-09-21 01:32:07+00",10.1,11.1,,67.7,425,-131,5,1023.74,67,0
"2018-09-21 01:37:07+00",9.7,10.7,,67.7,391,-166,10,1023.96,66.8,0
"2018-09-21 01:42:07+00",8.3,10.3,,67.9,361,-81,4,1023.94,67,0
"2018-09-21 01:47:07+00",9.9,10.9,,67.8,399,-178,6,1023.83,67,0
"2018-09-21 01:52:07+00",11.3,12.3,,67.9,461,-186,6,1023.72,67,0
"2018-09-21 01:57:07+00",12.2,14.2,,68,491,-216,-2,1023.66,67.1,0
"2018-09-21 02:02:07+00",13.1,15.1,,67.9,542,-222,-1,1023.48,67.1,0
"2018-09-21 02:07:07+00",14.8,17.8,,67.9,579,-300,-3,1023.38,67.1,0
"2018-09-21 02:12:07+00",13.4,15.4,,68,509,-297,3,1023.46,67.1,0
"2018-09-21 02:17:07+00",13.0,14.0,,67.9,516,-264,-1,1023.45,67.1,0
"2018-09-21 02:22:07+00",13.1,14.1,,68,539,-235,15,1023.34,67.2,0
"2018-09-21 02:27:07+00",13.0,15.0,,68,539,-197,-2,1023.37,67.2,0
"2018-09-21 02:32:07+00",14.5,16.5,,68.1,629,-163,3,1023.42,67.3,0
"2018-09-21 02:37:07+00",15.0,17.0,,68.1,612,-260,5,1023.41,67.4,0
"2018-09-21 02:42:07+00",13.5,15.5,,68.2,582,-155,10,1023.57,67.4,0
"2018-09-21 02:47:07+00",14.0,16.0,,68.2,600,-179,-1,1023.52,67.5,0
"2018-09-21 02:52:07+00",13.5,14.5,,68.2,552,-221,-8,1023.63,67.5,0
"2018-09-21 02:57:07+00",12.7,14.7,,68.1,527,-192,6,1023.72,67.5,0
"2018-09-21 03:02:07+00",10.2,11.2,,68,422,-157,0,1023.82,67.4,0
"2018-09-21 03:07:07+00",12.1,13.1,,68.1,476,-244,-1,1023.82,67.3,0
"2018-09-21 03:12:07+00",12.8,14.8,,68.2,526,-225,-1,1023.74,67.4,0
"2018-09-21 03:17:07+00",15.2,18.2,,68.2,658,-159,-7,1023.67,67.3,0
"2018-09-21 03:22:07+00",12.1,13.1,,68.1,505,-183,6,1023.77,67.4,0
"2018-09-21 03:27:07+00",15.5,17.5,,68.2,645,-238,-6,1023.61,67.4,0
"2018-09-21 03:32:07+00",15.5,17.5,,68.3,650,-233,-2,1023.64,67.4,0
"2018-09-21 03:37:07+00",14.9,17.9,,68.2,572,-328,2,1023.72,67.5,0
"2018-09-21 03:42:07+00",14.9,16.9,,68.3,555,-352,-3,1023.68,67.5,0
"2018-09-21 03:47:07+00",14.1,16.1,,68.4,598,-217,-1,1023.75,67.6,0
"2018-09-21 03:52:07+00",14.4,16.4,,68.3,562,-274,8,1023.68,67.6,0
"2018-09-21 03:57:07+00",12.0,15.0,,68.3,509,-179,2,1023.72,67.5,0
"2018-09-21 04:02:07+00",10.5,12.5,,68.3,426,-185,13,1023.7,67.5,0
"2018-09-21 04:07:07+00",12.7,14.7,,68.2,542,-152,12,1023.7,67.5,0
"2018-09-21 04:12:07+00",14.5,15.5,,68.4,600,-233,-1,1023.62,67.5,0
"2018-09-21 04:17:07+00",12.3,14.3,,68.4,457,-275,6,1023.7,67.5,0
"2018-09-21 04:22:07+00",12.3,14.3,,68.3,497,-231,11,1023.71,67.5,0
"2018-09-21 04:27:07+00",12.2,14.2,,68.4,488,-232,-1,1023.75,67.5,0
"2018-09-21 04:32:07+00",10.8,12.8,,68.4,359,-301,15,1023.68,67.5,0
"2018-09-21 04:37:07+00",9.5,11.5,,68.4,345,-225,6,1023.65,67.6,0
"2018-09-21 04:42:07+00",12.8,14.8,,68.6,461,-311,-10,1023.71,67.7,0
"2018-09-21 04:47:07+00",11.3,14.3,,68.5,321,-378,-4,1023.59,67.8,0
"2018-09-21 04:52:07+00",13.1,16.1,,68.4,486,-320,6,1023.51,67.8,0
"2018-09-21 04:57:07+00",11.6,13.6,,68.3,359,-360,-7,1023.57,67.7,0
"2018-09-21 05:02:07+00",11.3,13.3,,68.3,349,-346,-7,1023.36,67.7,0
"2018-09-21 05:07:07+00",12.6,14.6,,68.4,401,-365,-3,1023.44,67.6,0
"2018-09-21 05:12:07+00",9.7,10.7,,68.2,302,-291,2,1023.51,67.5,0
"2018-09-21 05:17:07+00",8.5,10.5,,68.2,260,-259,-3,1023.49,67.4,0
"2018-09-21 05:22:07+00",8.1,10.1,,68.2,250,-251,2,1023.56,67.3,0
"2018-09-21 05:27:07+00",7.3,8.3,,68.1,177,-257,-1,1023.61,67.2,0
"2018-09-21 05:32:07+00",8.8,9.8,,68.2,253,-279,4,1023.7,67.3,0
"2018-09-21 05:37:07+00",6.9,8.9,,68.2,187,-238,-3,1023.78,67.5,0
"2018-09-21 05:42:07+00",7.0,8.0,,68.3,199,-222,-7,1023.79,67.6,0
"2018-09-21 05:47:07+00",10.5,11.5,,68.4,292,-351,-8,1023.52,67.7,0
"2018-09-21 05:52:07+00",10.4,11.4,,68.5,314,-327,-4,1023.44,67.8,0
"2018-09-21 05:57:07+00",11.1,12.1,,68.5,329,-352,-3,1023.47,67.9,0
"2018-09-21 06:02:07+00",10.8,11.8,,68.4,373,-296,7,1023.37,67.9,0
"2018-09-21 06:07:07+00",11.3,12.3,,68.4,362,-325,10,1023.32,67.9,0
"2018-09-21 06:12:07+00",12.1,14.1,,68.3,395,-349,0,1023.41,67.8,0
"2018-09-21 06:17:07+00",9.8,10.8,,68.4,290,-308,7,1023.39,67.9,0
"2018-09-21 06:22:07+00",11.6,12.6,,68.4,319,-394,-7,1023.43,67.9,0
"2018-09-21 06:27:07+00",11.0,13.0,,68.4,312,-359,8,1023.39,68,0
"2018-09-21 06:32:07+00",10.9,11.9,,68.5,271,-389,5,1023.24,68,0
"2018-09-21 06:37:07+00",10.4,11.4,,68.5,307,-321,8,1023.24,68.1,0
"2018-09-21 06:42:07+00",12.1,14.1,,68.5,403,-343,-5,1023.24,68,0
"2018-09-21 06:47:07+00",13.5,15.5,,68.5,442,-398,-4,1023.17,68,0
"2018-09-21 06:52:07+00",12.3,14.3,,68.5,400,-376,7,1023.1,68,0
"2018-09-21 06:57:07+00",9.9,11.9,,68.5,299,-317,3,1023.21,68,0
"2018-09-21 07:02:07+00",9.7,10.7,,68.4,239,-343,-10,1023.22,67.9,0
"2018-09-21 07:07:07+00",8.4,9.4,,68.4,264,-245,1,1023.27,67.8,0
"2018-09-21 07:12:07+00",8.3,9.3,,68.4,273,-245,-2,1023.22,67.8,0
"2018-09-21 07:17:07+00",8.8,9.8,,68.4,233,-295,-1,1023.17,67.7,0
"2018-09-21 07:22:07+00",13.6,14.6,,68.4,335,-481,-21,1023.05,67.7,0
"2018-09-21 07:27:07+00",11.0,13.0,,68.4,227,-421,-12,1023.18,67.7,0
"2018-09-21 07:32:07+00",10.3,11.3,,68.4,201,-404,-8,1023.16,67.7,0
"2018-09-21 07:37:07+00",10.5,12.5,,68.5,277,-357,-6,1023.1,67.7,0
"2018-09-21 07:42:07+00",10.7,11.7,,68.5,261,-386,-6,1023.1,67.8,0
"2018-09-21 07:47:07+00",8.9,9.9,,68.4,244,-303,-5,1023.1,67.7,0
"2018-09-21 07:52:07+00",12.0,14.0,,68.5,408,-324,14,1022.98,67.7,0
"2018-09-21 07:57:07+00",10.9,11.9,,68.5,276,-382,-17,1023.03,67.7,0
"2018-09-21 08:02:07+00",9.6,10.6,,68.5,240,-342,-1,1023.09,67.7,0
"2018-09-21 08:07:07+00",9.2,10.2,,68.4,228,-329,-5,1023,67.7,0
"2018-09-21 08:12:07+00",10.1,12.1,,68.4,248,-360,-5,1022.93,67.6,0
"2018-09-21 08:17:07+00",9.4,10.4,,68.4,265,-301,14,1023.02,67.7,0
"2018-09-21 08:22:07+00",9.4,11.4,,68.4,316,-258,9,1023.06,67.7,0
"2018-09-21 08:27:07+00",10.0,11.0,,68.4,320,-298,-7,1022.99,67.7,0
"2018-09-21 08:32:07+00",8.6,10.6,,68.4,251,-275,1,1023.11,67.6,0
"2018-09-21 08:37:07+00",8.7,9.7,,68.3,180,-334,-5,1023.19,67.5,0
"2018-09-21 08:42:07+00",9.1,10.1,,68.4,158,-355,-5,1023.19,67.4,0
"2018-09-21 08:47:07+00",8.6,10.6,,68.5,204,-312,-3,1023.19,67.6,0
"2018-09-21 08:52:07+00",8.8,9.8,,68.6,177,-331,0,1023.2,67.6,0
"2018-09-21 08:57:07+00",9.6,12.6,,68.4,250,-325,-8,1023.29,67.6,0
"2018-09-21 09:02:07+00",8.4,9.4,,68.6,207,-288,-2,1023.36,67.6,0
"2018-09-21 09:07:07+00",9.7,10.7,,68.5,203,-366,-5,1023.35,67.7,0
"2018-09-21 09:12:07+00",9.0,10.0,,68.6,160,-350,-8,1023.35,67.8,0
"2018-09-21 09:17:07+00",8.1,10.1,,68.5,250,-252,0,1023.43,67.7,0
"2018-09-21 09:22:07+00",8.5,9.5,,68.6,237,-276,1,1023.31,67.7,0
"2018-09-21 09:27:07+00",8.1,9.1,,68.6,225,-263,-9,1023.51,67.8,0
"2018-09-21 09:32:07+00",8.7,9.7,,68.7,233,-294,-1,1023.49,67.9,0
"2018-09-21 09:37:07+00",8.1,9.1,,68.8,232,-267,-1,1023.6,67.8,0
"2018-09-21 09:42:07+00",7.1,8.1,,68.8,196,-239,-4,1023.75,67.8,0
"2018-09-21 09:47:07+00",9.3,11.3,,68.6,318,-263,-4,1023.71,67.8,0
"2018-09-21 09:52:07+00",9.6,10.6,,68.8,299,-284,7,1023.8,67.9,0
"2018-09-21 09:57:07+00",8.7,10.7,,68.7,234,-286,-7,1023.88,68,0
"2018-09-21 10:02:07+00",10.1,12.1,,68.8,353,-263,1,1023.79,68,0
"2018-09-21 10:07:07+00",9.3,10.3,,68.9,281,-289,-4,1023.87,68,0
"2018-09-21 10:12:07+00",8.8,9.8,,68.7,302,-228,8,1023.82,67.9,0
"2018-09-21 10:17:07+00",10.0,12.0,,68.7,323,-288,-1,1023.77,67.8,0
"2018-09-21 10:22:07+00",12.1,13.1,,68.7,399,-341,-5,1023.69,67.9,0
"2018-09-21 10:27:07+00",13.6,15.6,,68.9,459,-384,-5,1023.58,67.9,0
"2018-09-21 10:32:07+00",14.2,16.2,,68.9,503,-355,11,1023.5,68,0
"2018-09-21 10:37:07+00",15.9,17.9,,68.9,591,-386,0,1023.31,68.1,0
"2018-09-21 10:42:07+00",13.9,17.9,,68.8,479,-373,16,1023.44,68.1,0
"2018-09-21 10:47:07+00",11.9,14.9,,68.8,378,-356,-1,1023.54,68.1,0
"2018-09-21 10:52:07+00",13.3,15.3,,68.9,430,-389,9,1023.54,68.2,0
"2018-09-21 10:57:07+00",12.6,14.6,,68.9,437,-355,-4,1023.63,68.3,0
"2018-09-21 11:02:07+00",9.4,12.4,,68.9,296,-286,7,1023.98,68.3,0
"2018-09-21 11:07:07+00",9.3,10.3,,69,315,-245,27,1024.13,68.4,0
"2018-09-21 11:12:07+00",8.3,9.3,,69,291,-218,-1,1024.25,68.6,0
"2018-09-21 11:17:07+00",8.9,9.9,,69,273,-289,-6,1024.28,68.7,0
"2018-09-21 11:22:07+00",8.5,9.5,,69.1,252,-260,-6,1024.19,68.7,0
"2018-09-21 11:27:07+00",9.4,10.4,,69.1,313,-263,4,1024.13,68.8,0
"2018-09-21 11:32:07+00",11.5,13.5,,69.1,401,-310,-11,1024.02,68.8,0
"2018-09-21 11:37:07+00",9.0,10.0,,69.1,286,-257,0,1024.12,68.8,1.4
"2018-09-21 11:42:07+00",7.4,9.4,,69.1,249,-195,13,1024.22,68.9,9
"2018-09-21 11:47:07+00",10.6,11.6,,69.2,355,-297,-15,1024.26,69,7
"2018-09-21 11:52:07+00",9.0,10.0,,69.2,293,-267,11,1024.17,69.1,14.8
"2018-09-21 11:57:07+00",10.6,12.6,,69.2,360,-281,3,1024.07,69.2,19
"2018-09-21 12:02:07+00",11.3,12.3,,69.4,358,-339,0,1024.11,69.5,90.6
"2018-09-21 12:07:07+00",9.2,11.2,,69.7,300,-269,-7,1024.15,70.2,102.4
"2018-09-21 12:12:07+00",8.3,10.3,,69.7,244,-265,22,1024.19,70.3,25.1
"2018-09-21 12:17:07+00",10.5,11.5,,69.5,352,-293,-2,1024.22,70,65.7
"2018-09-21 12:22:07+00",11.0,13.0,,69.6,308,-365,1,1024.27,70.2,126.5
"2018-09-21 12:27:07+00",10.1,12.1,,69.8,304,-313,4,1024.27,70.2,48.6
"2018-09-21 12:32:07+00",8.4,9.4,,69.7,220,-286,19,1024.3,70.1,48.2
"2018-09-21 12:37:07+00",10.7,12.7,,69.7,258,-384,-11,1024.32,70,70.6
"2018-09-21 12:42:07+00",10.6,11.6,,69.8,232,-400,-5,1024.32,70.1,94.4
"2018-09-21 12:47:07+00",11.3,13.3,,69.9,280,-382,1,1024.14,70.4,65.8
"2018-09-21 12:52:07+00",11.4,13.4,,69.9,287,-394,-9,1024.08,70.3,60.4
"2018-09-21 12:57:07+00",11.8,12.8,,69.8,282,-427,-19,1024.09,70.2,78.5
"2018-09-21 13:02:07+00",11.1,12.1,,69.8,280,-389,-20,1024.12,70.3,106.2
"2018-09-21 13:07:07+00",11.7,13.7,,70.1,299,-415,-16,1024.13,70.7,152
"2018-09-21 13:12:07+00",13.1,14.1,,70.1,400,-410,-11,1024.05,71.2,184.9
"2018-09-21 13:17:07+00",10.7,11.7,,70.2,299,-354,15,1023.97,71.5,174.6
"2018-09-21 13:22:07+00",14.2,16.2,,70.3,388,-488,-11,1023.74,71.6,135.5
"2018-09-21 13:27:07+00",12.8,14.8,,70.2,339,-438,-21,1023.86,71.3,135.2
"2018-09-21 13:32:07+00",11.4,13.4,,70.4,232,-435,1,1023.9,71.5,212.6
"2018-09-21 13:37:07+00",11.9,13.9,,70.3,300,-420,-23,1023.93,71.6,248.7
"2018-09-21 13:42:07+00",11.0,13.0,,70.6,250,-406,-1,1023.87,71.8,250.3
"2018-09-21 13:47:07+00",10.7,12.7,,70.9,150,-427,3,1023.84,72.3,257.9
"2018-09-21 13:52:07+00",12.8,14.8,,70.8,247,-487,-15,1023.84,72.2,276.3
"2018-09-21 13:57:07+00",11.9,14.9,,71,113,-494,-3,1023.74,72.3,155
"2018-09-21 14:02:07+00",12.4,14.4,,70.8,143,-513,-20,1023.73,72,150.3
"2018-09-21 14:07:07+00",15.1,17.1,,70.7,248,-592,-10,1023.76,71.8,178.6
"2018-09-21 14:12:07+00",12.1,14.1,,71,103,-521,-7,1023.7,72.3,332.5
"2018-09-21 14:17:07+00",14.3,15.3,,70.8,222,-574,-29,1023.56,72.3,168.5
"2018-09-21 14:22:07+00",14.1,18.1,,70.8,268,-559,-2,1023.56,72,134.8
"2018-09-21 14:27:07+00",15.8,16.8,,70.6,275,-624,-23,1023.6,71.7,117.9
"2018-09-21 14:32:07+00",14.3,16.3,,70.7,225,-573,-19,1023.51,71.6,121.8
"2018-09-21 14:37:07+00",11.1,13.1,,70.9,126,-456,1,1023.59,71.7,129.6
"2018-09-21 14:42:07+00",12.6,14.6,,70.8,192,-494,-20,1023.39,71.8,301.9
"2018-09-21 14:47:07+00",11.6,14.6,,71.3,89,-489,-7,1023.25,72.4,210.1
"2018-09-21 14:52:07+00",14.7,16.7,,71.3,314,-552,11,1023.25,72.5,165.3
"2018-09-21 14:57:07+00",11.8,14.8,,71.4,114,-472,-2,1023.26,72.3,137.3
"2018-09-21 15:02:07+00",12.2,15.2,,71.3,8,-501,-22,1023.27,72.1,143.1
"2018-09-21 15:07:07+00",12.4,15.4,,71.3,149,-505,-2,1023.12,72.2,181.4
"2018-09-21 15:12:07+00",11.2,14.2,,71.5,122,-457,9,1023.13,72.5,169.4
"2018-09-21 15:17:07+00",13.4,14.4,,71.4,156,-552,-18,1023.11,72.4,169.1
"2018-09-21 15:22:07+00",15.8,16.8,,71.1,267,-628,-30,1022.94,72.2,157
"2018-09-21 15:27:07+00",11.9,14.9,,71.2,139,-489,0,1023.01,72.2,148.6
"2018-09-21 15:32:07+00",11.8,13.8,,71.6,83,-501,-14,1023.07,72.6,156.8
"2018-09-21 15:37:07+00",8.5,13.5,,71.6,62,-356,13,1023.15,72.4,149.2
"2018-09-21 15:42:07+00",7.1,9.1,,71.8,-13,-298,29,1023.2,72.6,134.6
"2018-09-21 15:47:07+00",10.8,13.8,,71.7,-59,-449,-15,1023.18,72.4,100
"2018-09-21 15:52:07+00",12.4,14.4,,71.4,-9,-510,-28,1023.11,72,102
"2018-09-21 15:57:07+00",8.6,12.6,,71.6,39,-373,-20,1023.05,72.1,131.7
"2018-09-21 16:02:07+00",7.4,11.4,,71.9,-64,-310,13,1023.01,72.5,161
"2018-09-21 16:07:07+00",10.6,12.6,,72.1,-185,-427,7,1023.03,72.8,160.4
"2018-09-21 16:12:07+00",10.1,14.1,,72.2,-75,-409,0,1022.88,73,252.6
"2018-09-21 16:17:07+00",9.5,13.5,,72.5,-13,-406,8,1022.74,73.4,291
"2018-09-21 16:22:07+00",13.9,16.9,,72.8,58,-583,-19,1022.69,73.8,383
"2018-09-21 16:27:07+00",11.6,13.6,,72.5,-50,-484,-39,1022.44,73.9,508.6
"2018-09-21 16:32:07+00",8.3,11.3,,73,-46,-346,42,1022.45,74.5,353.3
"2018-09-21 16:37:07+00",10.8,13.8,,72.8,-143,-448,-5,1022.48,74.3,179.9
"2018-09-21 16:42:07+00",12.7,16.7,,72.6,-15,-531,-23,1022.54,74,179
"2018-09-21 16:47:07+00",12.8,15.8,,72.4,16,-549,-26,1022.51,73.6,150.1
"2018-09-21 16:52:07+00",12.5,14.5,,72.5,-13,-519,-12,1022.43,73.4,280.6
"2018-09-21 16:57:07+00",10.6,14.6,,72.6,-105,-434,-1,1022.38,73.5,201.1
"2018-09-21 17:02:07+00",12.7,16.7,,72.7,72,-538,-14,1022.31,73.9,219.4
"2018-09-21 17:07:07+00",12.8,14.8,,72.6,17,-532,-25,1022.26,73.6,149.4
"2018-09-21 17:12:07+00",13.5,16.5,,72.6,-161,-556,-4,1022.18,73.6,166.3
"2018-09-21 17:17:07+00",13.7,16.7,,72.5,-106,-582,-28,1022.15,73.3,165.6
"2018-09-21 17:22:07+00",13.1,16.1,,72.7,-99,-552,-38,1022.17,73.5,137
"2018-09-21 17:27:07+00",10.0,13.0,,72.6,-119,-417,9,1022.2,73.4,132.8
"2018-09-21 17:32:07+00",11.2,15.2,,72.4,-73,-459,17,1021.99,73.1,117.2
"2018-09-21 17:37:07+00",9.6,14.6,,72.7,-48,-412,11,1021.99,73.3,103.3
"2018-09-21 17:42:07+00",12.7,17.7,,72.4,-100,-516,9,1022.03,73.1,106.5
"2018-09-21 17:47:07+00",13.3,16.3,,72.3,-50,-570,-21,1021.81,72.9,120.9
"2018-09-21 17:52:07+00",14.6,18.6,,72.3,-108,-617,-29,1021.72,73,149.6
"2018-09-21 17:57:07+00",11.4,15.4,,72.9,-36,-470,5,1021.6,73.5,195.6
"2018-09-21 18:02:07+00",11.9,16.9,,73.2,-147,-495,28,1021.59,74.1,282.3
"2018-09-21 18:07:07+00",15.2,19.2,,73.2,16,-661,-17,1021.42,74.2,254.3
"2018-09-21 18:12:07+00",10.1,13.1,,73.5,-50,-417,9,1021.44,74.6,306.9
"2018-09-21 18:17:07+00",16.1,21.1,,73.4,-19,-691,-48,1021.22,74.6,365.3
"2018-09-21 18:22:07+00",14.1,17.1,,72.9,-63,-591,4,1021.18,74,195.5
"2018-09-21 18:27:07+00",12.4,17.4,,73.2,-82,-524,7,1021.07,74.1,305.2
"2018-09-21 18:32:07+00",12.1,17.1,,73.6,-127,-505,27,1021.02,74.7,417.7
"2018-09-21 18:37:07+00",14.3,20.3,,73.3,-73,-597,-12,1020.92,74.5,201.5
"2018-09-21 18:42:07+00",13.8,16.8,,73.5,-27,-577,-28,1020.79,74.4,244.9
"2018-09-21 18:47:07+00",16.0,20.0,,73.1,-36,-680,-46,1020.65,74.1,240.8
"2018-09-21 18:52:07+00",15.0,21.0,,73.6,-129,-626,-15,1020.68,74.6,216.5
"2018-09-21 18:57:07+00",12.5,17.5,,73.5,-54,-523,-14,1020.55,74.5,196.2
"2018-09-21 19:02:07+00",12.4,15.4,,73.6,-104,-530,-1,1020.65,74.6,364.2
"2018-09-21 19:07:07+00",14.6,21.6,,73.7,-43,-612,-15,1020.59,74.7,188.6
"2018-09-21 19:12:07+00",13.9,17.9,,73.1,-99,-587,-12,1020.55,74.2,247.6
"2018-09-21 19:17:07+00",10.4,14.4,,73.5,-173,-428,42,1020.43,74.7,255.8
"2018-09-21 19:22:07+00",13.0,19.0,,73.6,-90,-527,-8,1020.25,74.7,226.4
"2018-09-21 19:27:07+00",15.3,22.3,,73.5,-109,-642,-6,1020.09,74.4,225.8
"2018-09-21 19:32:07+00",16.0,20.0,,73.4,-151,-671,-19,1020.11,74.3,338.2
"2018-09-21 19:37:07+00",15.1,20.1,,73.7,-144,-637,-13,1019.93,74.8,167.8
"2018-09-21 19:42:07+00",13.1,18.1,,73.8,-126,-541,17,1019.94,74.8,295.5
"2018-09-21 19:47:07+00",12.3,19.3,,74.3,-84,-509,10,1019.81,75.3,299.3
"2018-09-21 19:52:07+00",16.4,20.4,,74.2,-181,-679,1,1019.87,75.3,274.9
"2018-09-21 19:57:07+00",16.1,18.1,,73.7,-148,-668,-21,1019.81,74.8,226.2
"2018-09-21 20:02:07+00",10.2,15.2,,74.1,-98,-422,20,1019.83,74.8,211.3
"2018-09-21 20:07:07+00",13.0,18.0,,74,-82,-534,-24,1019.81,74.8,209.8
"2018-09-21 20:12:07+00",12.3,18.3,,74,-77,-497,13,1019.82,74.8,204.6
"2018-09-21 20:17:07+00",12.9,19.9,,73.9,-54,-535,0,1019.77,74.9,118.1
"2018-09-21 20:22:07+00",16.0,19.0,,73.6,-300,-623,-7,1019.8,74.8,204.7
"2018-09-21 20:27:07+00",12.4,18.4,,74,-106,-520,15,1019.79,74.9,219
"2018-09-21 20:32:07+00",11.3,14.3,,74.2,-157,-468,5,1019.78,74.9,172.9
"2018-09-21 20:37:07+00",14.0,18.0,,74,-151,-581,5,1019.74,74.8,170.1
"2018-09-21 20:42:07+00",10.6,16.6,,74.3,-111,-433,15,1019.69,75.1,179.1
"2018-09-21 20:47:07+00",13.3,16.3,,73.9,-62,-555,-5,1019.6,74.8,183.1
"2018-09-21 20:52:07+00",15.5,19.5,,73.7,-135,-640,-17,1019.5,74.4,130.7
"2018-09-21 20:57:07+00",14.7,18.7,,73.8,-186,-603,-8,1019.45,74.5,164
"2018-09-21 21:02:07+00",14.1,18.1,,73.9,-147,-586,0,1019.36,74.6,160.6
"2018-09-21 21:07:07+00",14.9,16.9,,73.8,-236,-600,-14,1019.33,74.7,89.9
"2018-09-21 21:12:07+00",10.1,18.1,,73.6,-130,-413,35,1019.35,74.3,122.5
"2018-09-21 21:17:07+00",16.8,20.8,,73.7,-251,-677,-22,1019.32,74.5,124.5
"2018-09-21 21:22:07+00",12.1,18.1,,73.8,-144,-487,34,1019.3,74.6,109.3
"2018-09-21 21:27:07+00",13.4,19.4,,73.8,-134,-537,-9,1019.26,74.5,101
"2018-09-21 21:32:07+00",14.1,18.1,,73.7,-182,-586,-13,1019.2,74.2,84.4
"2018-09-21 21:37:07+00",15.3,19.3,,73.6,-133,-630,-6,1019.11,74.1,82.7
"2018-09-21 21:42:07+00",14.0,17.0,,73.4,-172,-582,14,1019.02,74,64.2
"2018-09-21 21:47:07+00",16.2,19.2,,73.1,-181,-671,-9,1018.98,73.4,0
"2018-09-21 21:52:07+00",17.8,21.8,,72.9,-255,-736,-21,1019.05,73,1.1
"2018-09-21 21:57:07+00",11.2,16.2,,73.1,-124,-460,13,1018.89,73.1,56.4
"2018-09-21 22:02:07+00",15.4,19.4,,73.2,-179,-633,-4,1018.78,73.3,46.5
"2018-09-21 22:07:07+00",17.5,19.5,,73.3,-261,-700,-17,1018.66,73.5,39.3
"2018-09-21 22:12:07+00",14.9,18.9,,73.3,-234,-601,0,1018.62,73.5,28.1
"2018-09-21 22:17:07+00",18.1,21.1,,73.2,-338,-713,3,1018.63,73.4,16.9
"2018-09-21 22:22:07+00",12.2,15.2,,73.1,-140,-502,-1,1018.56,73.3,6.1
"2018-09-21 22:27:07+00",15.6,18.6,,73,-183,-643,-15,1018.53,73.1,0.9
"2018-09-21 22:32:07+00",13.7,17.7,,72.9,-158,-559,6,1018.42,72.9,0
"2018-09-21 22:37:07+00",15.2,19.2,,72.8,-237,-603,13,1018.41,72.8,0
"2018-09-21 22:42:07+00",15.2,18.2,,72.7,-192,-618,2,1018.3,72.6,0
"2018-09-21 22:47:07+00",15.1,21.1,,72.6,-160,-626,-7,1018.13,72.4,0
"2018-09-21 22:52:07+00",15.0,19.0,,72.6,-190,-621,-7,1018.07,72.3,0
"2018-09-21 22:57:07+00",13.9,17.9,,72.5,-149,-561,7,1017.98,72.3,0
"2018-09-21 23:02:07+00",13.3,16.3,,72.4,-196,-545,-11,1018.03,72.2,0
"2018-09-21 23:07:07+00",13.0,18.0,,72.4,-175,-528,15,1017.94,72.1,0
"2018-09-21 23:12:07+00",13.1,18.1,,72.3,-160,-539,10,1017.87,72,0
"2018-09-21 23:17:07+00",15.1,19.1,,72.3,-178,-612,-9,1017.66,72,0
"2018-09-21 23:22:07+00",14.7,19.7,,72.2,-148,-598,-12,1017.43,72,0
"2018-09-21 23:27:07+00",15.3,18.3,,72.3,-187,-643,-2,1017.46,71.9,0
"2018-09-21 23:32:07+00",11.6,16.6,,72.2,-129,-479,13,1017.46,71.9,0
"2018-09-21 23:37:07+00",13.7,17.7,,72.2,-181,-569,6,1017.41,71.9,0
"2018-09-21 23:42:07+00",16.4,22.4,,72.2,-195,-664,-7,1017.2,71.8,0
"2018-09-21 23:47:07+00",18.2,22.2,,72.3,-199,-758,-30,1017.11,71.9,0
"2018-09-21 23:52:07+00",16.7,21.7,,72.3,-185,-696,-13,1017.04,71.9,0
"2018-09-21 23:57:07+00",14.6,19.6,,72.2,-162,-594,4,1017.04,71.9,0
